When you browse on this site, cookies collect data to enhance your experience and personalize the content and advertising you see.
Visit our Privacy Policy to learn more. By continuing to use the site, you agree to this use of cookies and data.
  • In Czech Republic
  • List of Countries
  • For 7 days
  • Water Temperature
  • Satellite Maps
  • Weather Map
  • Weather Widgets
  • user-avatar
    Login

    Hourly Weather Innsbruck

    Today, 14 December, Friday

    Time Temperature Precipitation Wind Pressure Humidity
    00:00 -18°C° 0 mm 2 mps 586 mmHg 76%
    01:00 -18°C° 0 mm 2 mps 586 mmHg 73%
    02:00 -18°C° 0 mm 2 mps 586 mmHg 73%
    03:00 -18°C° 0 mm 2 mps 585 mmHg 72%
    04:00 -17°C° 0 mm 1 mps 585 mmHg 72%
    05:00 -17°C° 0 mm 1 mps 585 mmHg 70%
    06:00 -17°C° 0 mm 1 mps 585 mmHg 68%
    07:00 -17°C° 0 mm 1 mps 585 mmHg 69%
    08:00 -15°C° 0 mm 1 mps 586 mmHg 68%
    09:00 -14°C° 0 mm 1 mps 587 mmHg 67%
    10:00 -12°C° 0 mm 1 mps 588 mmHg 66%
    11:00 -11°C° 0 mm 1 mps 589 mmHg 63%
    12:00 -9°C° 0 mm 1 mps 589 mmHg 60%
    13:00 -8°C° 0 mm 1 mps 590 mmHg 57%
    14:00 -10°C° 0 mm 1 mps 589 mmHg 65%
    15:00 -11°C° 0 mm 1 mps 588 mmHg 73%
    16:00 -13°C° 0 mm 1 mps 588 mmHg 81%
    17:00 -14°C° 0 mm 1 mps 588 mmHg 82%
    18:00 -15°C° 0 mm 1 mps 588 mmHg 83%
    19:00 -16°C° 0 mm 1 mps 588 mmHg 84%
    20:00 -16°C° 0 mm 1 mps 588 mmHg 79%
    21:00 -16°C° 0 mm 1 mps 588 mmHg 75%
    22:00 -17°C° 0 mm 1 mps 588 mmHg 71%
    23:00 -17°C° 0 mm 1 mps 588 mmHg 69%

    Tomorrow, 15 December, Saturday

    Time Temperature Precipitation Wind Pressure Humidity
    00:00 -17°C° 0 mm 1 mps 588 mmHg 68%
    01:00 -17°C° 0 mm 1 mps 588 mmHg 66%
    02:00 -19°C° 0 mm 2 mps 589 mmHg 67%
    03:00 -19°C° 0 mm 2 mps 589 mmHg 69%
    04:00 -19°C° 0 mm 2 mps 589 mmHg 70%
    05:00 -19°C° 0 mm 2 mps 589 mmHg 72%
    06:00 -19°C° 0 mm 2 mps 589 mmHg 74%
    07:00 -19°C° 0 mm 2 mps 589 mmHg 76%
    08:00 -15°C° 0 mm 1 mps 590 mmHg 75%
    09:00 -14°C° 0 mm 1 mps 591 mmHg 75%
    10:00 -12°C° 0 mm 1 mps 592 mmHg 74%
    11:00 -11°C° 0 mm 1 mps 592 mmHg 71%
    12:00 -9°C° 0 mm 1 mps 592 mmHg 68%
    13:00 -8°C° 0 mm 1 mps 592 mmHg 64%
    14:00 -9°C° 0 mm 1 mps 592 mmHg 69%
    15:00 -11°C° 0 mm 1 mps 591 mmHg 74%
    16:00 -12°C° 0 mm 1 mps 590 mmHg 78%
    17:00 -13°C° 0 mm 1 mps 590 mmHg 74%
    18:00 -14°C° 0 mm 1 mps 590 mmHg 70%
    19:00 -14°C° 0 mm 1 mps 590 mmHg 66%
    20:00 -14°C° 0 mm 1 mps 590 mmHg 62%
    21:00 -14°C° 0 mm 1 mps 589 mmHg 59%
    22:00 -14°C° 0 mm 1 mps 589 mmHg 55%
    23:00 -15°C° 0 mm 2 mps 589 mmHg 53%

    Day after tomorrow, 16 December, Sunday

    Time Temperature Precipitation Wind Pressure Humidity
    00:00 -15°C° 0 mm 2 mps 589 mmHg 51%
    01:00 -14°C° 0 mm 2 mps 589 mmHg 50%
    02:00 -13°C° 0 mm 2 mps 589 mmHg 52%
    03:00 -12°C° 0 mm 2 mps 590 mmHg 54%
    04:00 -10°C° 0 mm 2 mps 590 mmHg 57%
    05:00 -10°C° 0.5 mm 2 mps 590 mmHg 65%
    06:00 -9°C° 0.5 mm 2 mps 590 mmHg 73%
    07:00 -9°C° 0.5 mm 2 mps 590 mmHg 81%
    08:00 -7°C° 0.4 mm 1 mps 591 mmHg 82%
    09:00 -4°C° 0.4 mm 1 mps 591 mmHg 83%
    10:00 -3°C° 0.4 mm 1 mps 592 mmHg 84%
    11:00 -3°C° 0 mm 1 mps 592 mmHg 85%
    12:00 -2°C° 0 mm 1 mps 592 mmHg 85%
    13:00 -1°C° 0 mm 1 mps 592 mmHg 85%
    14:00 -2°C° 0.2 mm 1 mps 592 mmHg 87%
    15:00 -2°C° 0.2 mm 1 mps 592 mmHg 88%
    16:00 -3°C° 0.2 mm 1 mps 592 mmHg 90%
    17:00 -3°C° 0.6 mm 1 mps 592 mmHg 90%
    18:00 -5°C° 0.6 mm 0 mps 592 mmHg 91%
    19:00 -5°C° 0.6 mm 0 mps 592 mmHg 91%
    20:00 -4°C° 0.7 mm 1 mps 592 mmHg 92%
    21:00 -4°C° 0.7 mm 1 mps 592 mmHg 93%
    22:00 -4°C° 0.7 mm 1 mps 592 mmHg 94%
    23:00 -4°C° 0.3 mm 1 mps 592 mmHg 93%

    17 December, Monday

    Time Temperature Precipitation Wind Pressure Humidity
    00:00 -6°C° 0.3 mm 1 mps 592 mmHg 93%
    01:00 -6°C° 0.3 mm 1 mps 591 mmHg 93%
    02:00 -6°C° 0 mm 1 mps 591 mmHg 92%
    03:00 -7°C° 0 mm 1 mps 591 mmHg 91%
    04:00 -7°C° 0 mm 1 mps 590 mmHg 90%
    05:00 -7°C° 0 mm 1 mps 590 mmHg 89%
    06:00 -8°C° 0 mm 1 mps 590 mmHg 89%
    07:00 -8°C° 0 mm 1 mps 591 mmHg 88%
    08:00 -7°C° 0 mm 1 mps 591 mmHg 88%
    09:00 -7°C° 0 mm 1 mps 592 mmHg 87%
    10:00 -6°C° 0 mm 1 mps 593 mmHg 86%
    11:00 -4°C° 0 mm 1 mps 593 mmHg 86%
    12:00 -6°C° 0 mm 2 mps 593 mmHg 86%
    13:00 -5°C° 0 mm 2 mps 594 mmHg 85%
    14:00 -6°C° 0 mm 2 mps 594 mmHg 87%
    15:00 -6°C° 0 mm 2 mps 594 mmHg 90%
    16:00 -7°C° 0 mm 2 mps 594 mmHg 92%
    17:00 -8°C° 0 mm 2 mps 594 mmHg 92%
    18:00 -9°C° 0 mm 2 mps 594 mmHg 92%
    19:00 -9°C° 0 mm 2 mps 595 mmHg 92%
    20:00 -10°C° 0 mm 2 mps 595 mmHg 91%
    21:00 -10°C° 0 mm 2 mps 595 mmHg 89%
    22:00 -12°C° 0 mm 2 mps 595 mmHg 88%
    23:00 -12°C° 0 mm 2 mps 595 mmHg 87%

    18 December, Tuesday

    Time Temperature Precipitation Wind Pressure Humidity
    00:00 -11°C° 0 mm 1 mps 595 mmHg 86%
    01:00 -11°C° 0 mm 1 mps 595 mmHg 85%
    02:00 -11°C° 0 mm 1 mps 595 mmHg 84%
    03:00 -11°C° 0 mm 1 mps 595 mmHg 84%
    04:00 -11°C° 0 mm 1 mps 595 mmHg 83%
    05:00 -11°C° 0 mm 1 mps 595 mmHg 81%
    06:00 -11°C° 0 mm 1 mps 595 mmHg 78%
    07:00 -11°C° 0 mm 1 mps 595 mmHg 76%
    08:00 -10°C° 0 mm 1 mps 596 mmHg 74%
    09:00 -9°C° 0 mm 2 mps 596 mmHg 72%
    10:00 -8°C° 0 mm 2 mps 597 mmHg 70%
    11:00 -6°C° 0 mm 2 mps 597 mmHg 71%
    12:00 -5°C° 0 mm 2 mps 597 mmHg 71%
    13:00 -3°C° 0 mm 2 mps 597 mmHg 71%
    14:00 -5°C° 0 mm 2 mps 596 mmHg 71%
    15:00 -6°C° 0 mm 2 mps 596 mmHg 71%
    16:00 -7°C° 0 mm 2 mps 595 mmHg 71%
    17:00 -8°C° 0 mm 2 mps 594 mmHg 68%
    18:00 -9°C° 0 mm 2 mps 594 mmHg 64%
    19:00 -10°C° 0 mm 3 mps 594 mmHg 61%
    20:00 -10°C° 0 mm 3 mps 594 mmHg 60%
    21:00 -10°C° 0 mm 3 mps 594 mmHg 59%
    22:00 -10°C° 0 mm 3 mps 593 mmHg 58%
    23:00 -10°C° 0 mm 3 mps 593 mmHg 58%

    19 December, Wednesday

    Time Temperature Precipitation Wind Pressure Humidity
    00:00 -9°C° 0 mm 3 mps 593 mmHg 58%
    01:00 -9°C° 0 mm 3 mps 593 mmHg 58%
    02:00 -9°C° 0 mm 3 mps 593 mmHg 60%
    03:00 -7°C° 0 mm 2 mps 593 mmHg 61%
    04:00 -7°C° 0 mm 2 mps 593 mmHg 62%
    05:00 -7°C° 0 mm 2 mps 593 mmHg 63%
    06:00 -7°C° 0 mm 2 mps 593 mmHg 63%
    07:00 -7°C° 0 mm 2 mps 593 mmHg 63%
    08:00 -6°C° 0 mm 2 mps 593 mmHg 65%
    09:00 -3°C° 0 mm 1 mps 594 mmHg 66%
    10:00 -3°C° 0 mm 1 mps 594 mmHg 68%
    11:00 -2°C° 0 mm 1 mps 594 mmHg 70%
    12:00 -1°C° 0 mm 1 mps 594 mmHg 72%
    13:00 -1°C° 0 mm 1 mps 594 mmHg 74%
    14:00 -2°C° 0 mm 1 mps 593 mmHg 77%
    15:00 -4°C° 0 mm 0 mps 593 mmHg 79%
    16:00 -5°C° 0 mm 0 mps 592 mmHg 81%
    17:00 -6°C° 0.1 mm 0 mps 592 mmHg 82%
    18:00 -6°C° 0.1 mm 0 mps 592 mmHg 82%
    19:00 -7°C° 0.1 mm 1 mps 592 mmHg 83%
    20:00 -7°C° 0.2 mm 1 mps 592 mmHg 84%
    21:00 -6°C° 0.2 mm 1 mps 592 mmHg 85%
    22:00 -6°C° 0.2 mm 1 mps 592 mmHg 86%
    23:00 -6°C° 0.4 mm 1 mps 592 mmHg 88%
    Show more